TimeMDT,TemperatureF,Dew PointF,Humidity,Sea Level PressureIn,VisibilityMPH,Wind Direction,Wind SpeedMPH,Gust SpeedMPH,PrecipitationIn,Events,Conditions,WindDirDegrees,DateUTC
12:53 AM,64.9,55.0,70,30.03,10.0,Calm,Calm,-,N/A,,Clear,0,2013-07-02 06:53:00
1:53 AM,63.0,54.0,72,30.04,10.0,NE,4.6,-,N/A,,Clear,40,2013-07-02 07:53:00
2:53 AM,60.1,53.1,78,30.05,10.0,NE,5.8,-,N/A,,Clear,40,2013-07-02 08:53:00
3:53 AM,60.1,53.1,78,30.04,10.0,ENE,6.9,-,N/A,,Clear,70,2013-07-02 09:53:00
4:53 AM,60.1,51.1,72,30.05,10.0,ENE,4.6,-,N/A,,Clear,70,2013-07-02 10:53:00
5:53 AM,60.1,50.0,69,30.07,10.0,NNE,6.9,-,N/A,,Clear,30,2013-07-02 11:53:00
6:53 AM,62.1,48.9,62,30.08,10.0,ENE,8.1,-,N/A,,Clear,60,2013-07-02 12:53:00
8:53 AM,72.0,55.0,55,30.09,10.0,NE,8.1,-,N/A,,Clear,50,2013-07-02 14:53:00
9:53 AM,77.0,53.1,43,30.06,10.0,NE,8.1,-,N/A,,Clear,40,2013-07-02 15:53:00
10:53 AM,82.0,53.1,37,30.05,10.0,NE,6.9,-,N/A,,Clear,50,2013-07-02 16:53:00
11:53 AM,86.0,48.9,28,30.05,10.0,East,5.8,-,N/A,,Clear,90,2013-07-02 17:53:00
12:53 PM,90.0,50.0,25,30.03,10.0,Variable,3.5,-,N/A,,Clear,0,2013-07-02 18:53:00
1:53 PM,91.0,51.1,25,30.01,10.0,West,5.8,-,N/A,,Clear,260,2013-07-02 19:53:00
2:53 PM,90.0,50.0,25,30.00,10.0,ESE,5.8,-,N/A,,Clear,120,2013-07-02 20:53:00
3:53 PM,90.0,51.1,26,29.98,10.0,WSW,6.9,-,N/A,,Clear,240,2013-07-02 21:53:00
4:00 PM,89.6,51.8,27,30.13,10.0,SW,5.8,-,N/A,Thunderstorm,Thunderstorm,230,2013-07-02 22:00:00
4:15 PM,84.2,59.0,42,30.13,10.0,WSW,4.6,-,N/A,,Partly Cloudy,250,2013-07-02 22:15:00
4:53 PM,82.0,61.0,49,29.99,10.0,West,6.9,-,0.00,,Partly Cloudy,260,2013-07-02 22:53:00
5:53 PM,86.0,61.0,43,29.95,10.0,Variable,3.5,-,N/A,,Clear,0,2013-07-02 23:53:00
6:53 PM,86.0,62.1,44,29.94,10.0,Calm,Calm,-,N/A,,Clear,0,2013-07-03 00:53:00
7:53 PM,80.1,59.0,48,29.95,10.0,West,6.9,-,N/A,,Clear,260,2013-07-03 01:53:00
8:53 PM,79.0,53.1,40,29.97,10.0,WNW,8.1,-,N/A,,Partly Cloudy,290,2013-07-03 02:53:00
9:53 PM,75.9,53.1,45,29.99,10.0,SSW,4.6,-,N/A,,Clear,200,2013-07-03 03:53:00
10:53 PM,73.9,52.0,46,30.01,10.0,SW,5.8,-,N/A,,Clear,220,2013-07-03 04:53:00
11:53 PM,73.0,52.0,48,29.98,10.0,South,8.1,-,N/A,,Clear,180,2013-07-03 05:53:00